[[{"header":{"parameterUnit":"m.s-1","parameterCategory":2,"la1":30.2991,"la2":30.254,"lo1":-89.0895,"lo2":-89.0444,"dy":0.0017,"dx":0.0017,"nx":28,"ny":28,"refTime":"2023-04-02T21:00:00:Z","depth":"0","parameterNumber":2,"parameterNumberName":"U-component_of_CURRENTS"},"data":[0,0,0,0,0,0,0,0,0,0,0,0,0,0,0,0,0,0,0,0,0,0,0,0,0,0,0,0,0,0,0,0,0,0,0,0,0,0,0,0,0,0,0,0,0,0,0,0,0,0,0,0,0,0,0,0,0,0,0.361,0.361,0,0.3642,0.3642,0.3642,0.3583,0.3581,0.358,0.3578,0.353,0.353,0.353,0,0,0,0,0,0,0,0,0,0,0,0,0,0.3457,0.346,0.361,0.361,0.3611,0.3642,0.3642,0.3642,0.3583,0.3581,0.3579,0.3577,0.353,0.353,0.353,0,0,0,0,0,0,0,0,0,0,0,0,0,0.3506,0.3461,0.3609,0.3588,0.3587,0.3642,0.3642,0.3642,0.3584,0.3581,0.3579,0.3577,0.3529,0.353,0.353,0.3581,0,0,0.3531,0.3531,0,0,0,0,0,0,0,0,0.3504,0.3511,0.3591,0.359,0.3589,0.3609,0.3571,0.3619,0.3584,0.3581,0.3578,0.3575,0.3553,0.3551,0.3559,0.3579,0.3577,0.3531,0.3531,0.3531,0.3532,0,0,0,0,0,0,0,0.35,0.351,0.3618,0.3592,0.3591,0.3564,0.3568,0.3579,0.3576,0.3581,0.3578,0.3588,0.3551,0.3558,0.3557,0.3576,0.3531,0.3531,0.3532,0.3532,0.3678,0.3681,0,0,0,0,0,0,0.351,0.3507,0.3618,0.362,0.3543,0.3569,0.3573,0.3602,0.3577,0.3573,0.359,0.3585,0.3559,0.3557,0.3555,0.3607,0.3531,0.3532,0.3532,0.3674,0.3678,0.3682,0,0,0,0,0,0,0.3507,0.352,0.3616,0.3565,0.3576,0.3575,0.3607,0.3604,0.3607,0.3586,0.3579,0.3596,0.3557,0.3554,0.3589,0.3605,0.3532,0.3532,0.367,0.3675,0.368,0.3716,0,0,0,0,0,0,0.3502,0.3519,0.3543,0.3567,0.358,0.3649,0.361,0.3607,0.362,0.3613,0.359,0.3582,0.3555,0.3589,0.3589,0.3604,0.3533,0.3665,0.3672,0.3679,0.371,0.3722,0.3732,0,0,0,0,0,0.3497,0.354,0.3544,0.3557,0.3613,0.365,0.3654,0.3641,0.3623,0.3633,0.3635,0.3583,0.3632,0.3592,0.3592,0.3607,0.3662,0.367,0.3678,0.3705,0.372,0.3732,0,0,0,0,0,0,0.3494,0.3539,0.3544,0.3601,0.3624,0.3641,0.3655,0.3653,0.3665,0.3655,0.3628,0.3624,0.3665,0.3653,0.3609,0.368,0.364,0.3649,0.3661,0.3674,0.3685,0.3664,0.3533,0,0,0,0,0,0.3508,0.3544,0.3581,0.3626,0.364,0.3652,0.3666,0.3661,0.3676,0.3677,0.3664,0.3673,0.3705,0.37,0.3723,0.3754,0.378,0.3771,0.3782,0.3791,0.3781,0.3865,0.3881,0.371,0.371,0.3709,0,0,0.3518,0.355,0.3569,0.3626,0.3641,0.3659,0.3652,0.368,0.3688,0.3673,0.3683,0.3714,0.3731,0.3771,0.3786,0.3751,0.3865,0.3802,0.3808,0.3793,0.3875,0.3891,0.3905,0.3715,0.3714,0.3713,0,0,0.3539,0.3587,0.3609,0.3632,0.3665,0.3676,0.3687,0.371,0.3713,0.3748,0.3753,0.3799,0.382,0.3839,0.3853,0.3947,0.3934,0.3959,0.3969,0.4051,0.4064,0.4076,0.4162,0.4181,0.3945,0.3945,0.3945,0,0.3546,0.3584,0.3622,0.3642,0.3656,0.3682,0.3695,0.3717,0.3745,0.3766,0.3751,0.3847,0.385,0.3919,0.3946,0.3963,0.4015,0.3903,0.406,0.4073,0.4084,0.4169,0.419,0.3948,0.3948,0.3947,0.3947,0,0.3574,0.3598,0.3617,0.3645,0.367,0.3694,0.3724,0.3753,0.3765,0.3786,0.3865,0.3903,0.3955,0.3976,0.3977,0.4072,0.4088,0.4075,0.4011,0.4102,0.4188,0.4209,0.3952,0.3951,0.395,0.3949,0,0,0.3601,0.3626,0.363,0.3634,0.3671,0.3697,0.3729,0.3775,0.3805,0.3851,0.3898,0.3975,0.4009,0.4032,0.4063,0.4117,0.4249,0.4122,0.4125,0.418,0.4449,0.4434,0.4455,0.4264,0.4267,0.427,0.4486,0,0.3604,0.3629,0.3639,0.3657,0.3675,0.3705,0.3731,0.378,0.3822,0.3878,0.395,0.401,0.4028,0.4063,0.4132,0.4225,0.4301,0.4192,0.4375,0.4381,0.4333,0.4477,0.4322,0.4498,0.4506,0.4509,0.4512,0,0.3624,0.3638,0.3647,0.3666,0.3676,0.3686,0.3749,0.3777,0.3865,0.3904,0.399,0.4042,0.4157,0.4142,0.4354,0.4289,0.4374,0.4435,0.4444,0.4421,0.4403,0.4407,0.4535,0.4369,0.4543,0.4541,0.4538,0,0.3632,0.3645,0.3649,0.3657,0.3684,0.3696,0.3717,0.3789,0.3825,0.3927,0.3978,0.4112,0.4201,0.4324,0.447,0.4422,0.4695,0.4643,0.4717,0.4718,0.4614,0.4599,0.4571,0.4791,0.479,0.4789,0.4789,0,0.3642,0.3653,0.365,0.3658,0.3672,0.3694,0.3724,0.3774,0.3844,0.391,0.3997,0.4091,0.4251,0.4417,0.4516,0.4712,0.4755,0.4753,0.4783,0.4629,0.4613,0.4484,0.441,0.4798,0.4796,0.4794,0.4793,0,0.3667,0.3656,0.3669,0.3677,0.3672,0.3695,0.3712,0.3751,0.3821,0.3915,0.3951,0.4121,0.4334,0.4502,0.4727,0.4789,0.4815,0.4998,0.4812,0.4814,0.4668,0.4604,0.4503,0.4365,0.5098,0.5099,0.51,0,0.3689,0.3689,0.3682,0.3675,0.3672,0.3686,0.3697,0.3742,0.3791,0.3942,0.4004,0.4209,0.4356,0.4691,0.484,0.5043,0.4863,0.4998,0.4858,0.4667,0.4619,0.442,0.4294,0.4759,0.4757,0.4755,0.4754,0,0.3723,0.3709,0.3708,0.3689,0.3682,0.3675,0.3699,0.3718,0.38,0.3888,0.4027,0.4137,0.4455,0.4592,0.4855,0.4947,0.4722,0.4969,0.4818,0.4398,0.4134,0.4011,0.4616,0.474,0.4741,0.4742,0.4743,0.4743,0.3738,0.3736,0.3703,0.3682,0.3671,0.3637,0.3599,0.3655,0.3697,0.3781,0.3979,0.4098,0.4359,0.4688,0.4733,0.4683,0.4654,0.4569,0.4532,0.4366,0.4134,0.4714,0.4831,0.4833,0.4834,0.4836,0.4837,0,0.3712,0.3692,0.3689,0.3619,0.3571,0.3582,0.3571,0.3517,0.3529,0.3686,0.3801,0.4023,0.4176,0.4312,0.4416,0.4275,0.4059,0.4147,0.38,0.3717,0.4291,0.4173,0.4093,0.4093,0.4093,0.4093,0.4093,0.4093,0.3687,0.3643,0.3626,0.3507,0.3462,0.3342,0.3304,0.3273,0.3328,0.3376,0.3464,0.3622,0.3866,0.4093,0.3976,0.3893,0.3521,0.3415,0.3367,0.3741,0.3774,0.3805,0.3673,0.3489,0.3489,0.2623,0.2616,0.2611]},{"header":{"parameterUnit":"m.s-1","parameterCategory":2,"la1":30.2991,"la2":30.254,"lo1":-89.0895,"lo2":-89.0444,"dy":0.0017,"dx":0.0017,"nx":28,"ny":28,"refTime":"2023-04-02T21:00:00:Z","depth":"0","parameterNumber":3,"parameterNumberName":"V-component_of_CURRENTS"},"data":[0,0,0,0,0,0,0,0,0,0,0,0,0,0,0,0,0,0,0,0,0,0,0,0,0,0,0,0,0,0,0,0,0,0,0,0,0,0,0,0,0,0,0,0,0,0,0,0,0,0,0,0,0,0,0,0,0,0,0.0982,0.0982,0,0.0916,0.0915,0.0914,0.0806,0.0804,0.0803,0.0801,0.0608,0.0605,0.0602,0,0,0,0,0,0,0,0,0,0,0,0,0,0.0972,0.0973,0.0983,0.0982,0.0981,0.0916,0.0915,0.0914,0.0806,0.0804,0.0802,0.08,0.061,0.0605,0.0601,0,0,0,0,0,0,0,0,0,0,0,0,0,0.0946,0.0973,0.0983,0.0922,0.0916,0.0916,0.0915,0.0913,0.0807,0.0804,0.0802,0.0799,0.0611,0.0606,0.0601,0.062,0,0,0.0585,0.0582,0,0,0,0,0,0,0,0,0.0947,0.0946,0.0931,0.0926,0.092,0.0869,0.084,0.081,0.0807,0.0846,0.0801,0.0798,0.0688,0.0676,0.0667,0.0611,0.0603,0.0584,0.0581,0.0579,0.0577,0,0,0,0,0,0,0,0.0949,0.0948,0.0953,0.0931,0.0924,0.0883,0.0876,0.0834,0.0777,0.0842,0.0835,0.0832,0.0683,0.0673,0.0661,0.06,0.0584,0.0579,0.0576,0.0574,0.0531,0.0533,0,0,0,0,0,0,0.0969,0.095,0.0956,0.0952,0.093,0.0885,0.0878,0.0886,0.078,0.0764,0.0835,0.0828,0.0683,0.0668,0.0654,0.0665,0.0579,0.0574,0.0571,0.0529,0.0531,0.0533,0,0,0,0,0,0,0.0969,0.097,0.0958,0.095,0.0946,0.0889,0.0898,0.0886,0.0872,0.0777,0.0756,0.0834,0.068,0.0661,0.0636,0.0656,0.0571,0.0566,0.0527,0.053,0.0532,0.0689,0,0,0,0,0,0,0.0969,0.0971,0.0983,0.0953,0.0948,0.0958,0.09,0.0886,0.0876,0.0866,0.077,0.0749,0.0677,0.0645,0.0631,0.0647,0.0562,0.0524,0.0528,0.0531,0.0682,0.0697,0.0711,0,0,0,0,0,0.0969,0.0984,0.0985,0.0985,0.0967,0.096,0.0954,0.0901,0.0879,0.0879,0.0831,0.0752,0.0658,0.0644,0.0626,0.0641,0.0522,0.0527,0.0531,0.0675,0.0694,0.071,0,0,0,0,0,0,0.0963,0.0974,0.0973,0.0986,0.0981,0.0942,0.0933,0.0919,0.0885,0.0867,0.0786,0.0763,0.075,0.0684,0.067,0.0642,0.0574,0.0576,0.0689,0.0706,0.0721,0.07,0.0558,0,0,0,0,0,0.098,0.1005,0.1001,0.1011,0.101,0.0984,0.0976,0.0949,0.0917,0.0899,0.0849,0.0792,0.076,0.0724,0.0682,0.0669,0.0614,0.0666,0.0681,0.0693,0.0667,0.064,0.065,0.0548,0.0548,0.0548,0,0,0.0978,0.099,0.1,0.1014,0.0999,0.0996,0.097,0.096,0.0959,0.0884,0.087,0.0848,0.0774,0.0763,0.0748,0.0703,0.0703,0.0699,0.0711,0.0676,0.0646,0.0656,0.0664,0.0551,0.0551,0.055,0,0,0.098,0.1001,0.1017,0.1021,0.1019,0.1008,0.1015,0.1001,0.0992,0.0998,0.0951,0.0947,0.0889,0.0848,0.0817,0.0887,0.0794,0.0876,0.0913,0.0891,0.0899,0.0904,0.0887,0.0889,0.0868,0.0868,0.0869,0,0.0973,0.1005,0.1017,0.1025,0.1033,0.1019,0.1028,0.102,0.1005,0.1019,0.1001,0.0975,0.0923,0.091,0.0933,0.0917,0.0889,0.0857,0.091,0.0914,0.0917,0.0897,0.0898,0.0876,0.0876,0.0875,0.0874,0,0.0991,0.1009,0.1014,0.1034,0.1041,0.1049,0.1048,0.1063,0.1071,0.1072,0.1095,0.106,0.1037,0.1038,0.0999,0.1007,0.0979,0.0948,0.0866,0.0937,0.0911,0.091,0.0888,0.0885,0.0883,0.0881,0,0,0.1005,0.1026,0.103,0.1054,0.1056,0.1073,0.1078,0.1104,0.1139,0.1131,0.118,0.1145,0.1149,0.1114,0.1089,0.1062,0.1088,0.1016,0.1011,0.0998,0.1045,0.1028,0.1024,0.1072,0.1072,0.1072,0.1032,0,0.1021,0.1058,0.1057,0.109,0.1118,0.1115,0.1136,0.1153,0.1182,0.1227,0.1203,0.1233,0.1169,0.1195,0.1157,0.1121,0.1083,0.1101,0.0974,0.097,0.0946,0.1021,0.0982,0.0943,0.103,0.1029,0.1029,0,0.106,0.1087,0.1126,0.1169,0.1179,0.119,0.1261,0.1275,0.1308,0.1335,0.1343,0.1337,0.1319,0.1265,0.1179,0.1198,0.1117,0.1068,0.1065,0.0978,0.0948,0.0877,0.0935,0.0682,0.1025,0.1025,0.1026,0,0.1125,0.1148,0.1196,0.1206,0.1234,0.1262,0.128,0.1319,0.137,0.1415,0.1473,0.143,0.1454,0.1338,0.1248,0.1214,0.1159,0.1098,0.0993,0.0991,0.0891,0.0881,0.0679,0.1005,0.1005,0.1005,0.1005,0,0.1177,0.1214,0.1236,0.1264,0.1335,0.1332,0.1412,0.1433,0.1492,0.1583,0.1538,0.1615,0.1475,0.1439,0.1296,0.1166,0.1192,0.1,0.098,0.095,0.0946,0.0664,0.0545,0.1003,0.1004,0.1004,0.1004,0,0.1234,0.1246,0.1309,0.135,0.1368,0.1425,0.1488,0.1569,0.1598,0.1721,0.1746,0.1767,0.1731,0.1584,0.1439,0.126,0.0984,0.1055,0.1039,0.1016,0.0644,0.0538,0.0334,0.0229,0.0905,0.0905,0.0904,0,0.1266,0.1304,0.1374,0.143,0.1448,0.1519,0.159,0.1627,0.1722,0.1833,0.1923,0.1928,0.1996,0.1776,0.1466,0.1211,0.0994,0.0963,0.0864,0.0616,0.0483,0.0422,0.0345,0.0806,0.0805,0.0804,0.0803,0,0.1321,0.1349,0.14,0.1514,0.16,0.1691,0.1792,0.1877,0.1958,0.2073,0.2233,0.2297,0.2098,0.1848,0.1481,0.1274,0.0777,0.093,0.0669,0.038,0.0303,0.0197,0.0843,0.0794,0.0795,0.0795,0.0796,0.0796,0.1364,0.142,0.1501,0.1608,0.172,0.1868,0.1968,0.21,0.2265,0.2488,0.2505,0.2672,0.223,0.174,0.1367,0.0651,0.0706,0.0422,0.0316,0.0279,0.0159,0.0792,0.0724,0.0724,0.0725,0.0725,0.0726,0,0.1411,0.1481,0.1593,0.1735,0.1878,0.1918,0.2117,0.2249,0.2472,0.2722,0.2893,0.2829,0.224,0.1612,0.0629,0.0107,-0.0059,-0.0138,-0.0278,-0.0327,0.0216,0.0188,0.0006,0.0006,0.0007,0.0007,0.0007,0.0007,0.1443,0.1549,0.1614,0.1843,0.1956,0.2177,0.2306,0.2517,0.2725,0.3054,0.3223,0.3331,0.2799,0.1047,-0.0192,-0.0445,-0.0802,-0.0844,-0.0983,-0.068,-0.0637,-0.0597,-0.0655,-0.1011,-0.1012,-0.1496,-0.1501,-0.1505]}],[{"header":{"parameterUnit":"m.s-1","parameterCategory":2,"la1":30.2991,"la2":30.254,"lo1":-89.0895,"lo2":-89.0444,"dy":0.0017,"dx":0.0017,"nx":28,"ny":28,"refTime":"2023-04-02T21:00:00:Z","depth":"2","parameterNumber":2,"parameterNumberName":"U-component_of_CURRENTS"},"data":[0,0,0,0,0,0,0,0,0,0,0,0,0,0,0,0,0,0,0,0,0,0,0,0,0,0,0,0,0,0,0,0,0,0,0,0,0,0,0,0,0,0,0,0,0,0,0,0,0,0,0,0,0,0,0,0,0,0,0.2744,0.2747,0,0.2981,0.2983,0.2985,0.3129,0.313,0.3132,0.3133,0.3221,0.3222,0.3223,0,0,0,0,0,0,0,0,0,0,0,0,0,0.2664,0.2662,0.2743,0.2747,0.2751,0.2981,0.2983,0.2985,0.3128,0.313,0.3132,0.3134,0.3221,0.3222,0.3223,0,0,0,0,0,0,0,0,0,0,0,0,0,0.277,0.2662,0.2743,0.2857,0.287,0.298,0.2983,0.2986,0.3128,0.313,0.3133,0.3135,0.3221,0.3222,0.3223,0.3184,0,0,0.3227,0.3228,0,0,0,0,0,0,0,0,0.2763,0.2771,0.2836,0.285,0.2865,0.3036,0.2989,0.3048,0.3127,0.302,0.3133,0.3136,0.315,0.3157,0.3185,0.3188,0.3192,0.3227,0.3228,0.3229,0.3229,0,0,0,0,0,0,0,0.2755,0.2763,0.2827,0.2841,0.2858,0.2984,0.2998,0.3001,0.3058,0.3029,0.3043,0.3084,0.3156,0.3184,0.3188,0.3193,0.3227,0.3229,0.3229,0.323,0.3297,0.3298,0,0,0,0,0,0,0.2729,0.2754,0.282,0.2836,0.283,0.2983,0.2998,0.2971,0.3062,0.3082,0.3082,0.309,0.318,0.3186,0.3191,0.3176,0.3229,0.323,0.3231,0.3296,0.3297,0.3298,0,0,0,0,0,0,0.2725,0.2729,0.2811,0.2814,0.2834,0.298,0.295,0.2974,0.3057,0.3105,0.3121,0.3146,0.3182,0.319,0.3243,0.318,0.3231,0.3232,0.3295,0.3296,0.3298,0.3128,0,0,0,0,0,0,0.272,0.2724,0.2693,0.2808,0.2833,0.2811,0.2949,0.2978,0.308,0.3094,0.3163,0.3172,0.3185,0.3241,0.3244,0.3183,0.3233,0.3294,0.3296,0.3297,0.3133,0.3124,0.3116,0,0,0,0,0,0.2715,0.2644,0.2687,0.2698,0.2781,0.2807,0.2826,0.2939,0.3081,0.304,0.3172,0.3173,0.3255,0.3243,0.3247,0.3183,0.3293,0.3295,0.3297,0.3136,0.3126,0.3116,0,0,0,0,0,0,0.2571,0.2657,0.2706,0.2658,0.2707,0.2834,0.2844,0.2964,0.3045,0.3104,0.3186,0.3198,0.3211,0.3252,0.3238,0.3222,0.3273,0.3276,0.3149,0.314,0.3132,0.3176,0.3234,0,0,0,0,0,0.2528,0.2515,0.2598,0.2562,0.2586,0.2737,0.2784,0.2869,0.2971,0.3017,0.3082,0.3172,0.3214,0.3227,0.3249,0.3242,0.3324,0.3214,0.3205,0.3197,0.3244,0.3347,0.3351,0.3306,0.3306,0.3306,0,0,0.2478,0.2521,0.2518,0.2536,0.2608,0.2634,0.2766,0.2827,0.2875,0.3006,0.3078,0.3135,0.3214,0.3199,0.3208,0.3227,0.324,0.32,0.3191,0.3245,0.3349,0.3354,0.3357,0.3307,0.3307,0.3307,0,0,0.2408,0.2391,0.2389,0.241,0.2507,0.2572,0.2599,0.2727,0.2788,0.2872,0.2983,0.3036,0.3104,0.3122,0.3158,0.3135,0.3196,0.3131,0.3109,0.3203,0.3208,0.3213,0.325,0.326,0.3122,0.3121,0.3121,0,0.2374,0.2358,0.2384,0.2393,0.2439,0.2551,0.2582,0.2625,0.2762,0.2829,0.2872,0.3055,0.3071,0.3115,0.3099,0.3104,0.3181,0.3116,0.3189,0.3196,0.3204,0.3243,0.3256,0.3113,0.3114,0.3115,0.3116,0,0.2321,0.2317,0.2307,0.236,0.2371,0.2399,0.2474,0.2509,0.2642,0.2736,0.2828,0.2886,0.3022,0.298,0.3037,0.3082,0.312,0.3158,0.3198,0.3198,0.3238,0.3255,0.3102,0.3105,0.3107,0.3109,0,0,0.2291,0.2287,0.2299,0.2339,0.2377,0.2406,0.2423,0.2501,0.2608,0.2668,0.2814,0.2829,0.2932,0.2986,0.3023,0.307,0.3123,0.3142,0.3151,0.3152,0.3322,0.3191,0.3197,0.319,0.3193,0.3196,0.3299,0,0.2292,0.2303,0.2295,0.2333,0.2363,0.2409,0.2426,0.2501,0.2598,0.272,0.2794,0.2945,0.291,0.3023,0.304,0.3167,0.3176,0.3092,0.3353,0.336,0.322,0.3215,0.2957,0.3017,0.3316,0.3319,0.3321,0,0.2293,0.2309,0.2339,0.2386,0.2406,0.2441,0.2551,0.2581,0.2703,0.281,0.2931,0.3039,0.3143,0.3135,0.3274,0.3243,0.3276,0.3314,0.3321,0.3291,0.3262,0.3087,0.3037,0.3351,0.3348,0.3346,0.3344,0,0.2327,0.2358,0.2398,0.2408,0.2451,0.2511,0.2559,0.265,0.2722,0.2934,0.3057,0.3181,0.3318,0.3394,0.3443,0.3425,0.3579,0.3569,0.3441,0.3431,0.3312,0.3285,0.364,0.364,0.3639,0.3639,0.3639,0,0.2331,0.238,0.2446,0.2466,0.2562,0.2587,0.2715,0.2779,0.2916,0.3036,0.3148,0.3265,0.3408,0.3488,0.3509,0.3522,0.3638,0.3455,0.3465,0.3236,0.3202,0.3599,0.3593,0.3643,0.3642,0.3641,0.3641,0,0.2344,0.2374,0.2445,0.2529,0.2579,0.2663,0.2801,0.2863,0.3022,0.3192,0.3294,0.3409,0.3544,0.3579,0.3713,0.3608,0.365,0.3597,0.3281,0.325,0.3416,0.3401,0.352,0.3517,0.3514,0.3511,0.3509,0,0.2303,0.235,0.2496,0.2539,0.2593,0.273,0.2784,0.2934,0.3009,0.3253,0.3312,0.3496,0.3535,0.3602,0.3536,0.3526,0.3605,0.3246,0.314,0.3415,0.3413,0.3402,0.339,0.2896,0.2889,0.2883,0.2879,0,0.2226,0.2334,0.2391,0.2494,0.2585,0.2684,0.2804,0.2876,0.3056,0.3182,0.3301,0.3366,0.343,0.3284,0.3245,0.3191,0.3241,0.3128,0.3562,0.2947,0.283,0.2826,0.2835,0.2828,0.2833,0.2837,0.284,0.2842,0.2167,0.2208,0.2292,0.2399,0.2499,0.2567,0.2611,0.2715,0.2804,0.2896,0.3083,0.3054,0.3055,0.2829,0.2771,0.274,0.2936,0.281,0.2826,0.285,0.2741,0.2623,0.256,0.2563,0.2566,0.2568,0.257,0,0.2006,0.2084,0.215,0.2246,0.2288,0.2437,0.2537,0.2516,0.2549,0.2628,0.2685,0.2376,0.2303,0.2373,0.2247,0.2227,0.2189,0.216,0.2121,0.2172,0.2217,0.2075,0.1718,0.1716,0.1713,0.1711,0,0,0.1904,0.1902,0.1957,0.1977,0.2097,0.2129,0.2179,0.2163,0.2182,0.2012,0.1965,0.2075,0.2227,0.1886,0.1879,0.1819,0.1968,0.1733,0.2416,0.2418,0.246,0.2592,0.243,0,0,0,0,0]},{"header":{"parameterUnit":"m.s-1","parameterCategory":2,"la1":30.2991,"la2":30.254,"lo1":-89.0895,"lo2":-89.0444,"dy":0.0017,"dx":0.0017,"nx":28,"ny":28,"refTime":"2023-04-02T21:00:00:Z","depth":"2","parameterNumber":3,"parameterNumberName":"V-component_of_CURRENTS"},"data":[0,0,0,0,0,0,0,0,0,0,0,0,0,0,0,0,0,0,0,0,0,0,0,0,0,0,0,0,0,0,0,0,0,0,0,0,0,0,0,0,0,0,0,0,0,0,0,0,0,0,0,0,0,0,0,0,0,0,-0.0227,-0.0225,0,-0.0144,-0.0144,-0.0143,-0.0066,-0.0064,-0.0062,-0.006,-0.007,-0.0072,-0.0074,0,0,0,0,0,0,0,0,0,0,0,0,0,-0.0192,-0.0195,-0.0227,-0.0225,-0.0223,-0.0144,-0.0144,-0.0143,-0.0066,-0.0064,-0.0062,-0.006,-0.007,-0.0072,-0.0074,0,0,0,0,0,0,0,0,0,0,0,0,0,-0.0177,-0.0196,-0.0227,-0.0169,-0.0162,-0.0144,-0.0143,-0.0143,-0.0066,-0.0064,-0.0061,-0.0059,-0.0069,-0.0072,-0.0075,-0.0146,0,0,-0.0083,-0.0085,0,0,0,0,0,0,0,0,-0.0178,-0.0179,-0.0179,-0.0173,-0.0165,-0.0105,-0.0134,-0.0145,-0.0067,-0.0112,-0.006,-0.0057,-0.0087,-0.0088,-0.0089,-0.0146,-0.0146,-0.0084,-0.0085,-0.0087,-0.0087,0,0,0,0,0,0,0,-0.0179,-0.0182,-0.0203,-0.0177,-0.0168,-0.0102,-0.0099,-0.0136,-0.0124,-0.0108,-0.01,-0.0077,-0.0084,-0.0087,-0.0089,-0.0147,-0.0084,-0.0086,-0.0088,-0.0089,-0.0179,-0.018,0,0,0,0,0,0,-0.0182,-0.0184,-0.0206,-0.02,-0.0155,-0.0105,-0.0102,-0.0134,-0.0121,-0.0113,-0.008,-0.0074,-0.0083,-0.0086,-0.0089,-0.0154,-0.0087,-0.0089,-0.0091,-0.0179,-0.018,-0.018,0,0,0,0,0,0,-0.0183,-0.0187,-0.0209,-0.0178,-0.0175,-0.0108,-0.0145,-0.0133,-0.01,-0.0097,-0.0092,-0.0052,-0.0081,-0.0085,-0.0091,-0.0154,-0.0091,-0.0093,-0.0178,-0.0179,-0.018,-0.0296,0,0,0,0,0,0,-0.0183,-0.019,-0.0215,-0.0181,-0.0177,-0.0213,-0.0146,-0.0133,-0.0088,-0.0079,-0.0074,-0.0073,-0.0079,-0.0086,-0.0093,-0.0157,-0.0095,-0.0177,-0.0178,-0.018,-0.0291,-0.0301,-0.0309,0,0,0,0,0,-0.0184,-0.0225,-0.0219,-0.0219,-0.0216,-0.0213,-0.0208,-0.0153,-0.0089,-0.0107,-0.0069,-0.0071,-0.0099,-0.0089,-0.0097,-0.0164,-0.0177,-0.0178,-0.018,-0.0287,-0.0299,-0.0309,0,0,0,0,0,0,-0.0243,-0.0219,-0.0211,-0.0251,-0.0239,-0.0197,-0.0199,-0.0143,-0.0126,-0.0115,-0.0081,-0.0082,-0.0114,-0.0108,-0.0096,-0.0186,-0.014,-0.0143,-0.0219,-0.023,-0.0238,-0.017,-0.0098,0,0,0,0,0,-0.0267,-0.0275,-0.0261,-0.029,-0.0295,-0.0242,-0.0225,-0.0197,-0.0167,-0.0153,-0.0128,-0.0116,-0.0137,-0.0151,-0.0167,-0.0221,-0.0196,-0.0263,-0.0272,-0.028,-0.0226,-0.0227,-0.0231,-0.0185,-0.0185,-0.0185,0,0,-0.0283,-0.0278,-0.0278,-0.0298,-0.0288,-0.0284,-0.0229,-0.0227,-0.0208,-0.0166,-0.014,-0.0149,-0.0151,-0.0208,-0.0224,-0.0208,-0.0298,-0.0282,-0.029,-0.0229,-0.0229,-0.0234,-0.0238,-0.0186,-0.0186,-0.0186,0,0,-0.03,-0.0344,-0.034,-0.0342,-0.0331,-0.032,-0.031,-0.0275,-0.026,-0.0248,-0.0216,-0.0231,-0.0246,-0.0269,-0.0279,-0.0339,-0.0338,-0.0366,-0.0374,-0.038,-0.0383,-0.0385,-0.0441,-0.0447,-0.0381,-0.0381,-0.0381,0,-0.0314,-0.0326,-0.0341,-0.0342,-0.0326,-0.0326,-0.0313,-0.0323,-0.028,-0.0263,-0.025,-0.0239,-0.0269,-0.031,-0.0338,-0.0364,-0.0366,-0.0349,-0.0393,-0.0394,-0.0394,-0.0449,-0.0454,-0.0387,-0.0386,-0.0385,-0.0385,0,-0.031,-0.0324,-0.0336,-0.0331,-0.0336,-0.0344,-0.0351,-0.0356,-0.0325,-0.0303,-0.0315,-0.0345,-0.0309,-0.0378,-0.0379,-0.0418,-0.0425,-0.0404,-0.037,-0.0406,-0.0462,-0.0466,-0.0395,-0.0393,-0.0391,-0.039,0,0,-0.0314,-0.0321,-0.032,-0.0302,-0.0329,-0.032,-0.0344,-0.0342,-0.0301,-0.0334,-0.0273,-0.0366,-0.0342,-0.0346,-0.0384,-0.0422,-0.0493,-0.0415,-0.0413,-0.0477,-0.0537,-0.0591,-0.06,-0.0482,-0.0481,-0.048,-0.0606,0,-0.0294,-0.0271,-0.0285,-0.0262,-0.0255,-0.0281,-0.028,-0.0288,-0.0286,-0.0251,-0.0318,-0.0267,-0.0348,-0.0311,-0.0384,-0.0392,-0.0491,-0.0462,-0.048,-0.048,-0.0529,-0.06,-0.0477,-0.0579,-0.0608,-0.0609,-0.0609,0,-0.0272,-0.0255,-0.0216,-0.0198,-0.0197,-0.0178,-0.0153,-0.0157,-0.0167,-0.0143,-0.0147,-0.0145,-0.0173,-0.0234,-0.0334,-0.0301,-0.043,-0.0499,-0.0505,-0.0489,-0.0536,-0.0529,-0.0583,-0.0614,-0.0614,-0.0613,-0.0613,0,-0.0225,-0.0208,-0.0159,-0.0154,-0.0141,-0.0113,-0.0107,-0.0107,-0.007,-0.0027,0.0051,-0.0012,0.0022,-0.0102,-0.0244,-0.0259,-0.0381,-0.0413,-0.063,-0.0637,-0.0494,-0.0489,-0.0553,-0.0553,-0.0553,-0.0553,-0.0552,0,-0.0197,-0.0163,-0.0117,-0.009,-0.0016,-0.0037,0.0047,0.0051,0.0095,0.0169,0.0143,0.0184,0.0068,-0.002,-0.0195,-0.04,-0.0343,-0.0623,-0.0659,-0.0543,-0.0542,-0.0506,-0.0499,-0.0557,-0.0556,-0.0555,-0.0555,0,-0.0159,-0.0137,-0.0074,-0.0021,0.0014,0.0069,0.0163,0.0203,0.0273,0.0379,0.0433,0.0375,0.0276,0.0087,-0.0118,-0.0312,-0.05,-0.0634,-0.0519,-0.054,-0.0785,-0.0782,-0.0845,-0.0847,-0.085,-0.0851,-0.0853,0,-0.0143,-0.0101,0.0003,0.0043,0.0079,0.0173,0.0222,0.0297,0.036,0.0477,0.0517,0.0469,0.0411,0.0081,-0.0191,-0.0487,-0.0606,-0.0665,-0.0688,-0.0779,-0.0808,-0.0801,-0.0796,-0.0583,-0.0582,-0.0581,-0.0581,0,-0.0113,-0.006,-0.0005,0.0087,0.0164,0.0264,0.0353,0.0449,0.0544,0.0659,0.0699,0.0683,0.0412,0.0171,-0.0222,-0.0437,-0.0572,-0.067,-0.0739,-0.0535,-0.0543,-0.0568,-0.0569,-0.0575,-0.0576,-0.0576,-0.0576,-0.0577,-0.0085,-0.0038,0.0033,0.0125,0.0205,0.0313,0.0422,0.0526,0.0668,0.0891,0.0828,0.0866,0.0551,0.0111,-0.0219,-0.0555,-0.0603,-0.0735,-0.0731,-0.0729,-0.0683,-0.0694,-0.075,-0.0752,-0.0753,-0.0754,-0.0755,0,-0.0056,-0.0016,0.0047,0.0164,0.0257,0.0303,0.047,0.0623,0.0806,0.1002,0.1119,0.0874,0.0613,0.0235,-0.0202,-0.0531,-0.0509,-0.0678,-0.055,-0.0554,-0.0558,-0.0498,-0.0519,-0.052,-0.052,-0.0521,0,0,-0.0043,0.0022,0.006,0.0199,0.0275,0.0439,0.0551,0.079,0.0981,0.1177,0.1242,0.1294,0.0773,0.0472,0.0052,-0.0203,-0.0302,-0.0266,-0.0413,-0.021,-0.0209,-0.0548,-0.0457,0,0,0,0,0]}],[{"header":{"parameterUnit":"m.s-1","parameterCategory":2,"la1":30.2991,"la2":30.254,"lo1":-89.0895,"lo2":-89.0444,"dy":0.0017,"dx":0.0017,"nx":28,"ny":28,"refTime":"2023-04-02T21:00:00:Z","depth":"4","parameterNumber":2,"parameterNumberName":"U-component_of_CURRENTS"},"data":[0,0,0,0,0,0,0,0,0,0,0,0,0,0,0,0,0,0,0,0,0,0,0,0,0,0,0,0,0,0,0,0,0,0,0,0,0,0,0,0,0,0,0,0,0,0,0,0,0,0,0,0,0,0,0,0,0,0,0.0741,0.0742,0,0.0759,0.0758,0.0757,0.081,0.0812,0.0814,0.0817,0.101,0.1012,0.1015,0,0,0,0,0,0,0,0,0,0,0,0,0,0.0651,0.0652,0.074,0.0742,0.0743,0.0759,0.0758,0.0757,0.0809,0.0812,0.0815,0.0818,0.1009,0.1012,0.1016,0,0,0,0,0,0,0,0,0,0,0,0,0,0.0669,0.0652,0.074,0.0782,0.0786,0.076,0.0758,0.0757,0.0809,0.0812,0.0816,0.0819,0.1008,0.1012,0.1016,0.0971,0,0,0.1029,0.1031,0,0,0,0,0,0,0,0,0.0668,0.067,0.0774,0.0779,0.0784,0.0798,0.0798,0.0842,0.0808,0.0785,0.0817,0.0821,0.0962,0.097,0.0943,0.098,0.0988,0.103,0.1032,0.1034,0.1035,0,0,0,0,0,0,0,0.0667,0.0669,0.0734,0.0776,0.0782,0.0767,0.0772,0.0804,0.0845,0.0788,0.0795,0.0818,0.0964,0.0938,0.0949,0.0991,0.103,0.1033,0.1036,0.1038,0.1186,0.1187,0,0,0,0,0,0,0.0694,0.0668,0.0733,0.0736,0.075,0.0767,0.0772,0.0779,0.0842,0.0857,0.0815,0.0821,0.0929,0.0943,0.0956,0.1116,0.1034,0.1038,0.1041,0.1185,0.1186,0.1188,0,0,0,0,0,0,0.0691,0.0698,0.0733,0.0715,0.072,0.0767,0.0772,0.0777,0.0839,0.0863,0.088,0.0883,0.0932,0.095,0.1038,0.1117,0.104,0.1044,0.1183,0.1185,0.1187,0.1303,0,0,0,0,0,0,0.0688,0.0696,0.071,0.0716,0.0723,0.0767,0.077,0.0776,0.0849,0.0858,0.0926,0.0941,0.0937,0.1031,0.1042,0.1122,0.1048,0.1182,0.1184,0.1187,0.1297,0.1309,0.1318,0,0,0,0,0,0.0684,0.0706,0.071,0.0719,0.0739,0.077,0.077,0.0805,0.085,0.0874,0.092,0.0944,0.1055,0.1035,0.1048,0.1131,0.118,0.1183,0.1186,0.1293,0.1306,0.1318,0,0,0,0,0,0,0.0676,0.0714,0.0719,0.0751,0.078,0.0786,0.0812,0.0851,0.0897,0.0919,0.0958,0.0975,0.1072,0.1078,0.1056,0.1174,0.1123,0.1129,0.12,0.1213,0.1223,0.1236,0.1051,0,0,0,0,0,0.0677,0.0705,0.0734,0.0761,0.078,0.0808,0.0833,0.0856,0.0899,0.0925,0.0976,0.1025,0.1072,0.1131,0.1143,0.1225,0.1209,0.1283,0.1293,0.1302,0.1318,0.1356,0.1372,0.1198,0.1198,0.1198,0,0,0.0676,0.0709,0.072,0.0763,0.0779,0.0806,0.083,0.088,0.0924,0.094,0.1025,0.1059,0.1094,0.1164,0.1212,0.1203,0.1336,0.1306,0.1315,0.1325,0.1361,0.1378,0.1393,0.12,0.1199,0.1199,0,0,0.0682,0.0722,0.0737,0.0773,0.0826,0.084,0.0884,0.0923,0.0969,0.1048,0.1062,0.1148,0.1231,0.1258,0.129,0.137,0.1372,0.1396,0.1495,0.1532,0.1547,0.156,0.1534,0.1545,0.1426,0.1426,0.1426,0,0.0682,0.0712,0.0748,0.078,0.0818,0.0876,0.0903,0.0947,0.1017,0.1071,0.1101,0.1223,0.1271,0.1362,0.1406,0.1401,0.1403,0.1452,0.1548,0.1561,0.1573,0.1543,0.1553,0.1432,0.1431,0.1431,0.143,0,0.0689,0.0732,0.0757,0.081,0.0843,0.0893,0.0952,0.1019,0.1105,0.1158,0.1281,0.1321,0.1413,0.1446,0.1478,0.159,0.1554,0.154,0.1523,0.1598,0.156,0.1569,0.144,0.1438,0.1437,0.1435,0,0,0.065,0.0741,0.0755,0.0791,0.0874,0.0904,0.0991,0.1084,0.1162,0.1267,0.1369,0.1491,0.1547,0.1584,0.1617,0.1681,0.1778,0.1687,0.1686,0.167,0.1835,0.1716,0.1712,0.1803,0.1806,0.1808,0.1765,0,0.0653,0.0711,0.0757,0.0828,0.0865,0.0952,0.1022,0.1118,0.1215,0.1324,0.1435,0.1542,0.1589,0.1661,0.1735,0.1759,0.1811,0.1788,0.1755,0.1753,0.1648,0.1723,0.1817,0.1771,0.1772,0.1774,0.1775,0,0.0642,0.0692,0.0742,0.0853,0.0876,0.093,0.1057,0.1131,0.1291,0.1373,0.1511,0.1598,0.1743,0.1756,0.1858,0.1853,0.1876,0.1879,0.1877,0.1737,0.1652,0.1684,0.1789,0.1788,0.1786,0.1786,0.1785,0,0.059,0.0693,0.0737,0.0777,0.089,0.0951,0.1033,0.1163,0.1251,0.1424,0.1519,0.1657,0.1765,0.1821,0.1895,0.1905,0.1951,0.1939,0.1828,0.1816,0.1883,0.1869,0.2003,0.2003,0.2003,0.2004,0.2004,0,0.0581,0.0627,0.0732,0.0764,0.0845,0.0931,0.1031,0.1136,0.1284,0.1381,0.156,0.1643,0.181,0.1875,0.1895,0.188,0.1952,0.1855,0.1818,0.1924,0.1916,0.1886,0.1873,0.2002,0.2002,0.2003,0.2003,0,0.0511,0.0583,0.0647,0.0772,0.0821,0.0882,0.1051,0.1119,0.1276,0.1399,0.1486,0.1692,0.178,0.1855,0.192,0.1878,0.1856,0.1825,0.1899,0.1864,0.1689,0.1682,0.17,0.1696,0.1693,0.169,0.1688,0,0.0486,0.0504,0.063,0.0669,0.0736,0.0847,0.0917,0.11,0.116,0.1393,0.1432,0.1627,0.1733,0.1705,0.179,0.1772,0.177,0.1729,0.1767,0.1706,0.1668,0.1667,0.1665,0.1682,0.1681,0.168,0.1679,0,0.0421,0.0461,0.0507,0.0585,0.0667,0.0759,0.0875,0.0927,0.1113,0.127,0.1383,0.1489,0.1568,0.1634,0.1644,0.1628,0.1741,0.1693,0.1701,0.1737,0.1684,0.165,0.1652,0.1667,0.1669,0.167,0.1671,0,0.0369,0.0381,0.0431,0.0504,0.0588,0.0651,0.0734,0.0828,0.0942,0.1189,0.1203,0.1382,0.153,0.1555,0.1541,0.1543,0.1545,0.1499,0.1517,0.1531,0.1506,0.1416,0.1299,0,0,0,0,0,0.0321,0.0323,0.0353,0.0434,0.0504,0.0566,0.0687,0.0766,0.0939,0.0981,0.1104,0.1173,0.1277,0.1362,0.1336,0.1457,0.1525,0.1418,0.1474,0.1601,0.1615,0.1605,0,0,0,0,0,0,0.029,0.0301,0.0315,0.0348,0.0392,0.0478,0.0556,0.0672,0.07,0.0881,0.0938,0.1088,0.1189,0.1277,0.1312,0.1332,0.1339,0.152,0.1517,0.1593,0.1606,0.1617,0.1612,0,0,0,0,0]},{"header":{"parameterUnit":"m.s-1","parameterCategory":2,"la1":30.2991,"la2":30.254,"lo1":-89.0895,"lo2":-89.0444,"dy":0.0017,"dx":0.0017,"nx":28,"ny":28,"refTime":"2023-04-02T21:00:00:Z","depth":"4","parameterNumber":3,"parameterNumberName":"V-component_of_CURRENTS"},"data":[0,0,0,0,0,0,0,0,0,0,0,0,0,0,0,0,0,0,0,0,0,0,0,0,0,0,0,0,0,0,0,0,0,0,0,0,0,0,0,0,0,0,0,0,0,0,0,0,0,0,0,0,0,0,0,0,0,0,0.0231,0.023,0,0.0111,0.011,0.0109,-0.0025,-0.0027,-0.003,-0.0032,-0.0187,-0.0189,-0.0191,0,0,0,0,0,0,0,0,0,0,0,0,0,0.0304,0.0304,0.0232,0.023,0.0228,0.0111,0.011,0.0108,-0.0025,-0.0028,-0.003,-0.0033,-0.0187,-0.0189,-0.0192,0,0,0,0,0,0,0,0,0,0,0,0,0,0.024,0.0304,0.0232,0.0146,0.0136,0.0111,0.011,0.0108,-0.0024,-0.0028,-0.0031,-0.0034,-0.0186,-0.0189,-0.0192,-0.0145,0,0,-0.0201,-0.0203,0,0,0,0,0,0,0,0,0.0244,0.0238,0.016,0.0151,0.0141,0.0052,0.0078,0.0021,-0.0023,0.004,-0.0032,-0.0036,-0.011,-0.0119,-0.013,-0.0152,-0.0159,-0.0202,-0.0204,-0.0205,-0.0206,0,0,0,0,0,0,0,0.0248,0.0242,0.0186,0.0158,0.0147,0.0098,0.0086,0.0067,-0.0014,0.0034,0.0023,0.0007,-0.0115,-0.0127,-0.0135,-0.0161,-0.0202,-0.0204,-0.0206,-0.0208,-0.0266,-0.0266,0,0,0,0,0,0,0.0264,0.0247,0.019,0.0183,0.0182,0.0099,0.0086,0.0086,-0.0013,-0.0032,0.001,0.0001,-0.012,-0.0131,-0.0141,-0.0137,-0.0205,-0.0208,-0.021,-0.0267,-0.0266,-0.0266,0,0,0,0,0,0,0.0266,0.0261,0.0195,0.0208,0.0196,0.0102,0.0103,0.0086,0.005,-0.0032,-0.0051,-0.0011,-0.0123,-0.0137,-0.0192,-0.0142,-0.0209,-0.0212,-0.0267,-0.0266,-0.0266,-0.0099,0,0,0,0,0,0,0.0269,0.0263,0.0276,0.021,0.0196,0.0191,0.0105,0.0085,0.0045,0.0032,-0.0054,-0.0072,-0.0127,-0.0187,-0.0195,-0.0148,-0.0215,-0.0267,-0.0267,-0.0266,-0.0105,-0.0093,-0.0082,0,0,0,0,0,0.0273,0.0299,0.0278,0.0271,0.0215,0.0193,0.0183,0.0105,0.0048,0.0056,-0.0034,-0.007,-0.0189,-0.0189,-0.0199,-0.0151,-0.0268,-0.0267,-0.0266,-0.011,-0.0095,-0.0083,0,0,0,0,0,0,0.0328,0.0286,0.0261,0.0271,0.0241,0.0169,0.0167,0.0112,0.0051,0.0029,-0.0065,-0.0087,-0.0115,-0.0165,-0.0163,-0.0173,-0.0233,-0.0234,-0.0111,-0.0097,-0.0086,-0.0088,-0.0217,0,0,0,0,0,0.0354,0.0366,0.0315,0.0325,0.0316,0.0245,0.0224,0.0177,0.011,0.0079,0.0019,-0.0055,-0.011,-0.0133,-0.0181,-0.0177,-0.0243,-0.0158,-0.0147,-0.0136,-0.0148,-0.0223,-0.0218,-0.0263,-0.0263,-0.0263,0,0,0.0372,0.0356,0.0357,0.0339,0.0308,0.0301,0.0225,0.0207,0.0197,0.0077,0.0051,-0.0013,-0.0106,-0.0114,-0.0129,-0.0153,-0.0151,-0.0135,-0.0125,-0.0144,-0.0221,-0.0217,-0.0213,-0.0263,-0.0263,-0.0263,0,0,0.0407,0.0412,0.0421,0.0414,0.0383,0.0351,0.0348,0.0292,0.0266,0.0237,0.014,0.0097,0.0028,-0.002,-0.0062,-0.0016,-0.0094,-0.0028,0.004,-0.0029,-0.0026,-0.0024,-0.0061,-0.0064,-0.0015,-0.0015,-0.0015,0,0.0422,0.0435,0.0423,0.0431,0.0423,0.0375,0.0376,0.0363,0.0296,0.0277,0.0245,0.0121,0.0074,0.0026,0.0042,0.0017,-0.0045,0.0008,-0.0012,-0.0012,-0.0013,-0.0052,-0.0057,-0.0007,-0.0008,-0.0008,-0.0009,0,0.045,0.0468,0.0481,0.0478,0.0479,0.0485,0.0462,0.0466,0.043,0.0391,0.0347,0.0275,0.0186,0.0192,0.0131,0.0109,0.0062,0.0012,-0.0035,0.0003,-0.0042,-0.005,0.0005,0.0002,-0.0,-0.0002,0,0,0.0446,0.0487,0.049,0.0499,0.0505,0.0503,0.0527,0.0514,0.05,0.0473,0.0439,0.0387,0.0331,0.0278,0.0216,0.0178,0.0161,0.0102,0.0094,0.0084,0.0013,0.0003,-0.0008,0.0094,0.0093,0.0092,0.0001,0,0.0457,0.0492,0.0509,0.0538,0.0549,0.0551,0.0572,0.0564,0.0545,0.052,0.0465,0.0411,0.0369,0.0328,0.0285,0.0167,0.0137,0.019,-0.0042,-0.0048,-0.0047,-0.0019,0.0087,-0.0006,-0.0008,-0.001,-0.0011,0,0.0457,0.0487,0.0521,0.0563,0.0567,0.0585,0.0598,0.0611,0.059,0.0572,0.052,0.0452,0.0394,0.0352,0.0197,0.0221,0.0131,0.0059,0.0052,-0.0031,-0.0075,-0.0069,-0.0028,-0.0026,-0.0025,-0.0024,-0.0023,0,0.0438,0.0488,0.052,0.0535,0.0578,0.0598,0.0617,0.0617,0.0632,0.0596,0.0577,0.0483,0.0425,0.0299,0.0163,0.0161,-0.0012,-0.0037,-0.0122,-0.0123,-0.0159,-0.0162,-0.0143,-0.0143,-0.0142,-0.0142,-0.0142,0,0.0432,0.0458,0.0518,0.0535,0.0575,0.0601,0.0632,0.064,0.0647,0.0651,0.0592,0.0552,0.04,0.0286,0.0164,-0.0004,-0.0019,-0.0112,-0.0154,-0.0082,-0.0074,-0.0163,-0.0164,-0.0145,-0.0145,-0.0144,-0.0143,0,0.0408,0.0444,0.0488,0.0548,0.0568,0.0597,0.0664,0.0684,0.0686,0.0688,0.0677,0.0588,0.0432,0.0288,0.0083,-0.0003,-0.0157,-0.0211,-0.0098,-0.0133,-0.0215,-0.0207,-0.0311,-0.0313,-0.0314,-0.0315,-0.0315,0,0.0404,0.0425,0.0498,0.053,0.0563,0.0618,0.0658,0.0697,0.0719,0.0701,0.069,0.0565,0.0483,0.0206,0.0046,-0.0176,-0.0208,-0.0267,-0.0253,-0.0205,-0.0236,-0.0226,-0.0216,-0.0317,-0.0317,-0.0318,-0.0318,0,0.0405,0.043,0.0471,0.0538,0.059,0.0649,0.0704,0.0721,0.0756,0.0755,0.069,0.0565,0.0392,0.0193,0.0021,-0.0139,-0.0218,-0.0279,-0.0278,-0.0265,-0.0214,-0.0241,-0.023,-0.0322,-0.0321,-0.0321,-0.0321,0,0.0415,0.0444,0.0499,0.0555,0.0618,0.0668,0.0696,0.0721,0.0746,0.073,0.0697,0.0539,0.0448,0.0209,0.0045,-0.0108,-0.0147,-0.0178,-0.0182,-0.018,-0.0116,-0.003,-0.0119,0,0,0,0,0,0.043,0.0465,0.0515,0.0584,0.064,0.068,0.0726,0.0748,0.0769,0.0729,0.0723,0.0568,0.0333,0.0224,0.0065,0.001,-0.0182,-0.018,-0.022,-0.0342,-0.0338,-0.0287,0,0,0,0,0,0,0.0446,0.0495,0.0517,0.0593,0.0642,0.0714,0.0746,0.0756,0.0729,0.0721,0.0588,0.0545,0.03,0.0427,0.0069,0.0021,-0.0023,-0.0289,-0.0292,-0.0345,-0.0341,-0.0337,-0.0283,0,0,0,0,0]}]]